Weather History for Valparaiso, IN

Change the Weather History Date:

Wednesday, December 5, 2012

  Actual Average Record
Temperature  
Mean Temperature 36 °F 32 °F  
Max Temperature 43 °F 38 °F 69 °F (2001)
Min Temperature 29 °F 25 °F 7 °F (2008)
Degree Days  
Heating Degree Days 29 33  
Month to date heating degree days 79 163  
Since 1 July heating degree days 1383 1421  
Cooling Degree Days 0 0  
Month to date cooling degree days 0 0  
Year to date cooling degree days 1054 713  
Moisture  
Dew Point 27 °F    
Average Humidity 70    
Maximum Humidity 82    
Minimum Humidity 55    
Precipitation  
Precipitation 0.00 in 0.09 in 1.26 in (1999)
Month to date precipitation 0.64 0.44  
Year to date precipitation 24.83 35.77  
Sea Level Pressure  
Sea Level Pressure 30.35 in    
Wind  
Wind Speed 7 mph (ENE)    
Max Wind Speed 13 mph    
Max Gust Speed 17 mph    
Visibility 10 miles    
Events      
T = Trace of Precipitation, MM = Missing Value Source: NWS Daily Summary

Daily Weather History Graph

Daily Weather History Graph

Search for Another Location

Airport:

Trip Planner

Search our weather history database for the weather conditions in past years. The results will help you decide how hot, cold, wet, or windy it might be!

Date:

Astronomy

Dec. 05, 2012 Rise Set
Actual Time 6:59 AM CST 4:18 PM CST
Civil Twilight 6:28 AM CST 4:49 PM CST
Nautical Twilight 5:53 AM CST 5:23 PM CST
Astronomical Twilight 5:20 AM CST 5:57 PM CST
Moon 11:11 PM CST (12/5) 11:19 AM CST (12/5)
Length of Visible Light 10h 21m
Length of Day
9h 18m
Waning Gibbous, 59% of the Moon is Illuminated
Dec 5
Waning Gibbous
Dec 6
Last Quarter
Dec 13
New
Dec 19
First Quarter
Dec 28
Full

Hourly Weather History & Observations

Time (CST) Temp. Windchill Dew Point Humidity Pressure Visibility Wind Dir Wind Speed Gust Speed Precip Events Conditions
12:53 AM 39.9 °F 33.9 °F 30.0 °F 68% 30.28 in 10.0 mi North 9.2 mph - N/A   Clear
1:53 AM 37.9 °F 32.7 °F 28.9 °F 70% 30.32 in 10.0 mi NNW 6.9 mph - N/A   Clear
2:53 AM 37.0 °F 31.6 °F 28.0 °F 70% 30.33 in 10.0 mi North 6.9 mph - N/A   Clear
3:53 AM 35.1 °F 29.3 °F 27.0 °F 72% 30.34 in 10.0 mi North 6.9 mph - N/A   Clear
4:53 AM 35.1 °F 30.1 °F 27.0 °F 72% 30.36 in 10.0 mi North 5.8 mph - N/A   Clear
5:53 AM 33.1 °F 27.7 °F 26.1 °F 75% 30.38 in 10.0 mi North 5.8 mph - N/A   Clear
6:53 AM 33.1 °F 28.7 °F 25.0 °F 72% 30.39 in 10.0 mi North 4.6 mph - N/A   Clear
8:53 AM 37.0 °F 31.0 °F 27.0 °F 67% 30.42 in 10.0 mi NNE 8.1 mph - N/A   Clear
9:53 AM 39.0 °F 32.8 °F 27.0 °F 62% 30.43 in 10.0 mi NNE 9.2 mph - N/A   Clear
10:53 AM 39.9 °F 35.1 °F 27.0 °F 60% 30.41 in 10.0 mi NNE 6.9 mph - N/A   Clear
11:53 AM 42.1 °F 39.2 °F 28.0 °F 58% 30.40 in 10.0 mi North 4.6 mph - N/A   Clear
12:53 PM 42.1 °F 37.7 °F 27.0 °F 55% 30.38 in 10.0 mi ENE 6.9 mph - N/A   Clear
1:53 PM 42.1 °F 38.4 °F 28.0 °F 58% 30.37 in 10.0 mi East 5.8 mph - N/A   Clear
2:53 PM 41.0 °F 37.1 °F 28.0 °F 60% 30.36 in 10.0 mi ESE 5.8 mph - N/A   Clear
3:53 PM 37.0 °F 32.4 °F 27.0 °F 67% 30.37 in 10.0 mi ESE 5.8 mph - N/A   Clear
4:53 PM 33.1 °F 30.0 °F 26.1 °F 75% 30.37 in 10.0 mi East 3.5 mph - N/A   Clear
5:53 PM 30.9 °F 25.2 °F 25.0 °F 79% 30.37 in 10.0 mi East 5.8 mph - N/A   Clear
6:53 PM 30.9 °F 27.5 °F 25.0 °F 79% 30.36 in 10.0 mi East 3.5 mph - N/A   Clear
7:53 PM 30.0 °F 23.2 °F 24.1 °F 79% 30.34 in 10.0 mi ESE 6.9 mph - N/A   Clear
8:53 PM 28.9 °F 22.8 °F 24.1 °F 82% 30.33 in 10.0 mi East 5.8 mph - N/A   Clear
9:53 PM 32.0 °F 23.6 °F 26.1 °F 79% 30.30 in 10.0 mi SE 10.4 mph - N/A   Clear
10:53 PM 30.9 °F 23.5 °F 25.0 °F 79% 30.27 in 10.0 mi SE 8.1 mph - N/A   Clear
11:53 PM 30.9 °F 23.5 °F 25.0 °F 79% 30.26 in 10.0 mi SE 8.1 mph - N/A   Clear